Location: Grange Verzio
(44.5000°N, 6.9833°E)
Time: 00:42:49
(UTC+00:00)

CZ-4 R/B - Pass Details

Date: 01 February 2023
Orbit: 526 x 587 km, 97.7° (Epoch: 24 March)

Event Time Altitude Azimuth Distance (km) Brightness Sun altitude
Rises 17:56:53 0° 143° (SE) 2,811 4.7 -13.8°
Reaches altitude 10° 17:59:11 10° 134° (SE) 1,909 3.7 -14.2°
Maximum altitude 18:02:55 33° 70° (ENE) 984 2.0 -14.9°
Drops below altitude 10° 18:06:37 10° 6° (N) 1,897 3.9 -15.5°
Sets 18:08:54 0° 357° (N) 2,790 4.9 -15.9°
